Hourly Data Report for October 07, 2019

QUALICUM BEACH AIRPORT
BRITISH COLUMBIA
Current Station Operator: ECCC - MSC

49°20'14.000" N
124°23'38.000" W
58.20 m
1026562
71766
VOQ

Download Data

Hourly Data (October 2019)
Hourly Data Report for October 7, 2019
TIME
LST
Temp Definition
°C
Dew Point Definition
°C
Rel Hum Definition
%
Precip. Amount Definition
mm

Wind Dir Definition
10's deg

Wind Spd Definition
km/h
Visibility Definition
km
Stn Press Definition
kPa
Hmdx Definition


Wind Chill Definition


Weather Definition


00:00 10.4 9.5 94 0.0 16 8   101.08     LegendNANA
01:00 10.3 9.5 95 0.5 14 8   100.99     LegendNANA
02:00 9.6 9.0 96 2.9 12 14   100.86     LegendNANA
03:00 9.7 8.9 95 0.6 12 11   100.81     LegendNANA
04:00 9.4 8.7 96 0.2 10 7   100.73     LegendNANA
05:00 9.7 9.1 96 0.0 11 9   100.66     LegendNANA
06:00 9.9 9.2 96 0.0 12 6   100.57     LegendNANA
07:00 10.0 9.2 95 0.0 13 8   100.48     LegendNANA
08:00 10.4 9.6 95 0.0 14 12   100.40     LegendNANA
09:00 10.9 9.9 94 0.0 12 12   100.34     LegendNANA
10:00 11.3 10.3 94 0.0 11 14   100.30     LegendNANA
11:00 12.1 10.7 91 0.0 12 13   100.28     LegendNANA
12:00 12.0 10.8 92 0.0 11 11   100.26     LegendNANA
13:00 13.1 11.3 89 0.0 11 10   100.18     LegendNANA
14:00 13.4 11.5 89 0.0 12 9   100.09     LegendNANA
15:00 13.8 11.5 86 0.0 5 4   100.06     LegendNANA
16:00 12.9 10.9 88 0.0 33 21   100.17     LegendNANA
17:00 11.3 8.2 81 0.0 32 12   100.25     LegendNANA
18:00 11.3 7.4 77 0.0 32 17   100.26     LegendNANA
19:00 11.0 5.4 68 0.0 32 17   100.30     LegendNANA
20:00 10.6 5.8 73 0.0 33 17   100.33     LegendNANA
21:00 10.3 5.9 74 0.0 32 12   100.35     LegendNANA
22:00 9.9 5.8 76 0.0 32 15   100.38     LegendNANA
23:00 9.0 5.3 77 0.0 30 9   100.37     LegendNANA

Notes on Data Quality.

Legend

  • E = Estimated
  • M = Missing
  • NA = Not Available*
  • [empty] = Indicates an unobserved value
Date modified: